Tracking 23762 objects as of 20-Oct-2021
HD Live streaming from Space Station
objects crossing your sky now

ARIANE 5 R/B

Track ARIANE 5 R/B now!


NORAD ID: 37208
Int'l Code: 2010-056C
Perigee: 238.0 km
Apogee: 31,609.9 km
Inclination: 2.4 °
Period: 552.2 minutes
Semi major axis: 22294 km
RCS: 23.4894 m2 (large)
Launch date: October 28, 2010
Source: France (FR)
Launch site: FRENCH GUIANA (FRGUI)

Note: This is a ROCKET BODY
aabbcc
Your satellite tracking list
Your tracking list is empty




NASA's NSSDC Master Catalog

Two Line Element Set (TLE):
1 37208U 10056C   21292.15110094  .00006737  00000-0  10843-2 0  9990
2 37208   2.4351 122.2099 7035650 276.2457  14.7495  2.60791353 99162
Source of the keplerian elements: AFSPC